Notices

What's New in latest Release from April 7th, 2021:

- Updated Glossary, including Speed of Maximum Gust, and Total Hourly Precipitation

- Updated national and regional climate services offices contacts and prices information

- Addition of station inventory lists for 1981-2010, 1971-2000, and 1961-1990 Normals.

If you haven't already, please take our survey and provide feedback about our website: https://eccc.sondage-survey.ca/f/LanguageSelection.aspx?s=442ca660-fcf1-47c0-95a9-59707d6fd709

Hourly Data Report for November 14, 2019

MIRAMICHI RCS
NEW BRUNSWICK
Current Station Operator: ECCC - MSC

47°00'34.000" N
65°27'54.000" W
33.00 m
8100989
71744
ACQ

Download Data

Hourly Data (November 2019)
Hourly Data Report for November 14, 2019
TIME
LST
Temp Definition
°C
Dew Point Definition
°C
Rel Hum Definition
%
Precip. Amount Definition
mm

Wind Dir Definition
10's deg

Wind Spd Definition
km/h
Visibility Definition
km
Stn Press Definition
kPa
Hmdx Definition


Wind Chill Definition


Weather Definition


00:00 -7.9 -11.8 74 0.0 27 13   101.83   -14 LegendNANA
01:00 -8.7 -11.8 78 0.0 24 4   101.98   -11 LegendNANA
02:00 -10.1 -12.7 81 0.0 23 9   102.07   -15 LegendNANA
03:00 -9.4 -12.3 79 0.0 25 12   102.17   -15 LegendNANA
04:00 -9.0 -12.6 75 0.2 27 14   102.29   -15 LegendNANA
05:00 -8.9 -12.9 73 0.0 28 15   102.38   -15 LegendNANA
06:00 -9.6 -13.0 76 0.0 27 10   102.48   -15 LegendNANA
07:00 -11.1 -13.1 85 0.0 25 6   102.55   -15 LegendNANA
08:00 -12.7 -14.7 85 0.0 17 4   102.64   -15 LegendNANA
09:00 -9.9 -12.9 79 0.0 20 6   102.71   -13 LegendNANA
10:00 -8.0 -12.3 71 0.0 23 7   102.74   -12 LegendNANA
11:00 -5.9 -11.8 63 0.0 22 4   102.76   -8 LegendNANA
12:00 -4.2 -11.1 58 0.0 20 6   102.73   -7 LegendNANA
13:00 -3.4 -12.4 50 0.0 17 12   102.67   -8 LegendNANA
14:00 -2.6 -13.1 44 0.0 20 13   102.62   -7 LegendNANA
15:00 -2.5 -12.8 45 0.0 18 14   102.59   -7 LegendNANA
16:00 -2.6 -11.8 49 0.0 19 13   102.54   -7 LegendNANA
17:00 -3.1 -11.5 52 0.0 20 13   102.54   -8 LegendNANA
18:00 -3.6 -11.4 55 0.0 19 16   102.52   -9 LegendNANA
19:00 -3.9 -10.8 59 0.0 18 10   102.47   -8 LegendNANA
20:00 -4.2 -10.3 63 0.0 19 7   102.40   -7 LegendNANA
21:00 -4.3 -8.9 70 0.0 14 7   102.33   -7 LegendNANA
22:00 -4.0 -7.1 79 0.0 17 10   102.24   -8 LegendNANA
23:00 -3.2 -5.0 87 0.0 16 15   102.15   -8 LegendNANA

Notes on Data Quality.

Legend

  • E = Estimated
  • M = Missing
  • NA = Not Available*
  • [empty] = Indicates an unobserved value
Date modified: